This is the latest recevied weather packets stored in our database for station/object N5XJB. If no packets are shown the sender has not sent any weather packets the latest 10 day(s).
| Time | Temp. | Humidity | Pressure | Rain* | Wind** | Luminosity | Snow |
|---|---|---|---|---|---|---|---|
| 1777740573 | 21.11° C | 54% | 1022 hPa | 0 mm | - | 819 W/m² | - |
| 1777740269 | 21.67° C | 53% | 1022 hPa | 0 mm | - | 812 W/m² | - |
| 1777739965 | 21.67° C | 58% | 1022 hPa | 0 mm | - | 803 W/m² | - |
| 1777739662 | 21.67° C | 57% | 1021.6 hPa | 0 mm | - | 790 W/m² | - |
| 1777739360 | 21.11° C | 56% | 1022 hPa | 0 mm | - | 779 W/m² | - |
| 1777739056 | 21.11° C | 58% | 1022 hPa | 0 mm | - | 769 W/m² | - |
| 1777738753 | 21.67° C | 60% | 1022 hPa | 0 mm | - | 757 W/m² | - |
| 1777738449 | 21.11° C | 59% | 1022 hPa | 0 mm | - | 750 W/m² | - |
| 1777738147 | 20.56° C | 62% | 1022 hPa | 0 mm | - | 738 W/m² | - |
| 1777737846 | 20.56° C | 64% | 1021.6 hPa | 0 mm | - | 716 W/m² | - |
| 1777737544 | 20° C | 65% | 1022 hPa | 0 mm | - | 710 W/m² | - |
| 1777737242 | 20° C | 63% | 1022 hPa | 0 mm | - | 695 W/m² | - |
| 1777736937 | 20° C | 65% | 1021.6 hPa | 0 mm | - | 685 W/m² | - |
| 1777736025 | 19.44° C | 68% | 1021.6 hPa | 0 mm | - | 643 W/m² | - |
| 1777735717 | 19.44° C | 68% | 1022 hPa | 0 mm | - | 632 W/m² | - |
| 1777735414 | 19.44° C | 69% | 1021.6 hPa | 0 mm | - | 615 W/m² | - |
| 1777735112 | 18.89° C | 70% | 1021.6 hPa | 0 mm | - | 598 W/m² | - |
| 1777734808 | 18.33° C | 72% | 1021.3 hPa | 0 mm | - | 581 W/m² | - |
| 1777734506 | 18.33° C | 72% | 1021.6 hPa | 0 mm | - | 563 W/m² | - |
| 1777734202 | 17.78° C | 74% | 1021.6 hPa | 0 mm | - | 547 W/m² | - |
| 1777733898 | 17.78° C | 75% | 1021.6 hPa | 0 mm | - | 527 W/m² | - |
| 1777733595 | 17.78° C | 76% | 1021.3 hPa | 0 mm | - | 512 W/m² | - |
| 1777733292 | 17.22° C | 77% | 1022 hPa | 0 mm | - | 492 W/m² | - |
| 1777732989 | 17.22° C | 76% | 1021.6 hPa | 0 mm | - | 471 W/m² | - |
| 1777732684 | 16.67° C | 78% | 1021.6 hPa | 0 mm | - | 452 W/m² | - |
* Rain latest hour (hover to see other rain measurements)
** Current wind speed in m/s (hover to see current wind gust speed)